Tracking 20232 objects as of 18-Jan-2020
HD Live streaming from Space Station
objects crossing your sky now

COSMOS 2251 DEB

Track COSMOS 2251 DEB now!
10-day predictions


NORAD ID: 33759
Int'l Code: 1993-036G
Perigee: 716.2 km
Apogee: 748.3 km
Inclination: 74.0 °
Period: 99.3 minutes
Semi major axis: 7103 km
RCS: 0.079 m2 (small)
Launch date: June 16, 1993
Source: Commonwealth of Independent States (former USSR) (CIS)
Launch site: PLESETSK MISSILE AND SPACE COMPLEX (PKMTR)

Note: This is SATELLITE DEBRIS
aabbcc
Your satellite tracking list
Your tracking list is empty




NASA's NSSDC Master Catalog

Two Line Element Set (TLE):
1 33759U 93036G   20018.50936571 +.00000853 +00000-0 +22581-3 0  9992
2 33759 074.0200 172.4358 0022548 082.9511 340.5923 14.50168640575287
Source of the keplerian elements: AFSPC